Date,TemperatureHighF,TemperatureAvgF,TemperatureLowF,DewpointHighF,DewpointAvgF,DewpointLowF,HumidityHigh,HumidityAvg,HumidityLow,PressureMaxIn,PressureMinIn,WindSpeedMaxMPH,WindSpeedAvgMPH,GustSpeedMaxMPH,PrecipitationSumIn
2013-1-1,56,51,48,47,45,43,87,80,70,30.14,30.07,8,2,12,0.00
2013-1-2,57,51,47,49,46,43,91,83,67,30.31,30.14,3,0,6,0.00
2013-1-3,58,53,49,50,46,36,91,80,57,30.40,30.31,4,1,8,0.00
2013-1-4,58,52,47,41,37,34,70,59,42,30.34,30.06,3,0,6,0.00
2013-1-5,56,50,46,39,36,32,71,59,42,30.06,29.78,7,1,11,0.00
2013-1-6,50,46,41,40,36,32,84,70,60,29.90,29.70,13,4,24,0.02
2013-1-7,52,44,38,32,29,21,71,56,40,29.99,29.85,16,4,23,0.00
2013-1-8,42,36,34,32,28,20,91,72,41,30.20,29.99,16,4,25,0.03
2013-1-9,44,39,33,32,26,23,70,62,52,30.25,30.17,4,0,9,0.00
2013-1-10,49,45,38,39,30,21,72,59,42,30.19,30.03,9,1,12,0.00
2013-1-11,59,54,47,52,49,39,97,83,68,30.03,29.81,11,2,19,0.06
2013-1-12,57,52,48,48,45,41,89,77,63,30.03,29.81,6,1,12,0.00
2013-1-13,57,51,45,44,41,37,82,71,49,30.22,30.04,5,1,7,0.00
2013-1-14,57,53,48,49,46,42,82,76,64,30.27,30.21,8,2,15,0.00
2013-1-15,58,56,52,53,49,46,90,80,71,30.26,30.02,13,4,20,0.02
2013-1-16,58,55,49,52,49,43,96,81,63,30.01,29.67,19,6,31,0.72
2013-1-17,58,54,49,52,46,41,84,75,64,29.78,29.65,18,5,26,0.00
2013-1-18,57,53,46,51,47,38,93,80,60,29.64,29.45,20,6,31,0.11
2013-1-19,55,49,45,43,40,38,81,71,56,29.87,29.53,6,1,12,0.00
2013-1-20,62,56,48,55,48,40,88,75,60,29.94,29.85,11,2,15,0.00
2013-1-21,63,59,55,55,50,42,89,74,47,29.91,29.65,18,5,27,0.00
2013-1-22,61,56,52,52,48,45,86,75,58,29.80,29.67,11,2,16,0.00
2013-1-23,59,55,52,48,44,41,78,67,53,29.95,29.79,6,1,12,0.00
2013-1-24,61,54,48,54,48,41,93,79,68,29.95,29.58,22,5,31,0.30
2013-1-25,56,51,47,50,45,41,94,81,65,29.65,29.49,17,3,28,0.48
2013-1-26,55,50,46,48,45,42,94,84,72,29.65,29.43,5,1,12,0.43
2013-1-27,51,47,45,44,42,40,92,80,67,29.93,29.66,8,1,16,0.01
2013-1-28,52,48,45,44,41,39,85,76,68,29.99,29.90,7,1,10,0.00
2013-1-29,49,47,45,41,39,35,83,74,65,30.09,29.99,11,2,16,0.00
2013-1-30,55,49,41,43,35,27,82,62,37,30.09,29.95,4,1,7,0.00
2013-1-31,58,52,46,46,39,27,70,61,37,30.00,29.83,15,2,26,0.00
2013-2-1,56,51,44,46,36,27,80,56,36,30.06,29.91,14,2,20,0.00
2013-2-2,61,55,50,54,48,41,90,77,63,29.91,29.76,12,3,19,0.00
2013-2-3,63,59,56,55,54,52,92,83,68,29.92,29.77,20,8,34,0.00
2013-2-4,64,59,56,56,53,50,93,80,61,29.98,29.91,11,2,14,0.00
2013-2-5,62,57,52,53,49,45,91,77,59,29.98,29.84,7,1,12,0.00
2013-2-6,59,54,50,52,48,44,91,80,69,29.84,29.66,12,2,13,0.00
2013-2-7,58,54,50,51,48,45,94,80,68,29.70,29.52,17,6,40,0.13
2013-2-8,55,51,47,46,42,38,89,71,60,29.74,29.53,9,2,16,0.06
2013-2-9,57,51,45,43,41,39,83,69,53,29.87,29.74,11,2,13,0.00
2013-2-10,56,51,47,41,40,37,76,65,52,29.87,29.79,4,1,11,0.00
2013-2-11,53,48,45,40,36,33,81,63,48,30.04,29.77,11,1,14,0.00
2013-2-12,57,51,45,48,42,34,80,71,53,30.06,29.99,13,3,18,0.00
2013-2-13,56,52,45,49,46,43,95,81,65,29.99,29.88,18,5,31,1.06
2013-2-14,53,48,46,47,45,44,94,89,76,29.90,29.68,11,1,14,0.34
2013-2-15,52,47,44,46,43,41,94,85,75,30.02,29.68,10,2,16,0.16
2013-2-16,54,50,46,46,44,41,91,80,68,30.05,30.00,7,1,13,0.14
2013-2-17,47,45,43,45,41,38,95,85,79,30.06,29.94,11,3,17,0.22
2013-2-18,53,47,41,41,38,36,84,73,58,30.08,30.04,6,1,12,0.00
2013-2-19,55,50,46,50,44,39,95,82,70,30.04,29.77,12,2,17,0.09
2013-2-20,57,50,44,44,38,34,80,64,44,30.05,29.82,8,1,13,0.00
2013-2-21,55,52,49,50,43,39,88,73,66,30.04,29.69,24,2,27,0.03
2013-2-22,57,53,48,52,49,46,96,89,72,29.72,29.55,19,3,28,2.31
2013-2-23,61,55,49,52,49,46,95,81,62,30.02,29.73,8,1,11,0.01
2013-2-24,64,58,50,55,49,47,93,73,54,30.08,30.01,14,3,20,0.00
2013-2-25,66,61,56,54,50,46,85,69,56,30.07,29.96,15,4,22,0.00
2013-2-26,63,58,52,55,49,42,92,74,51,30.03,29.95,10,3,16,0.00
2013-2-27,58,53,50,45,41,36,80,64,45,30.05,29.94,6,1,14,0.00
2013-2-28,52,49,45,41,40,38,80,71,62,30.20,30.06,9,3,15,0.00
2013-3-1,55,49,43,41,37,33,76,65,50,30.19,30.01,6,2,11,0.00
2013-3-2,56,51,45,47,43,39,84,74,61,30.01,29.87,8,1,16,0.00
2013-3-3,54,51,47,48,43,37,91,75,60,29.96,29.75,19,6,30,0.29
2013-3-4,58,51,43,44,40,36,82,68,48,30.17,29.96,8,1,10,0.00
2013-3-5,55,50,46,43,38,34,80,65,53,30.41,30.17,15,3,16,0.00
2013-3-6,54,49,42,42,36,32,74,62,49,30.39,30.14,4,1,8,0.00
2013-3-7,56,52,50,51,47,42,93,82,69,30.15,29.92,4,0,7,0.21
2013-3-8,59,54,50,52,50,48,94,87,71,29.91,29.85,7,1,9,0.00
2013-3-9,65,58,52,55,52,49,94,81,64,29.85,29.72,7,1,11,0.02
2013-3-10,64,59,54,53,50,46,84,72,54,29.81,29.71,9,1,12,0.00
2013-3-11,67,60,54,57,52,46,88,76,57,29.71,29.58,7,1,15,0.00
2013-3-12,67,60,55,48,45,41,72,58,39,29.71,29.58,10,1,13,0.00
2013-3-13,63,58,52,55,48,44,90,71,58,29.74,29.68,18,3,22,0.00
2013-3-14,67,61,56,55,49,41,90,65,43,29.70,29.29,19,8,31,0.00
2013-3-15,59,55,50,45,42,38,70,63,55,29.61,29.38,8,2,19,0.00
2013-3-16,56,50,46,40,37,34,77,62,45,29.99,29.60,10,2,14,0.00
2013-3-17,54,48,43,37,35,31,78,62,42,30.17,29.99,9,1,12,0.00
2013-3-18,54,50,46,48,42,36,88,73,61,30.18,29.94,12,2,14,0.00
2013-3-19,61,57,53,54,51,47,85,80,72,29.95,29.76,18,5,22,0.00
2013-3-20,65,59,52,55,49,44,87,70,47,29.90,29.79,8,1,17,0.00
2013-3-21,66,63,59,55,50,40,86,62,49,29.79,29.52,17,3,17,0.00
2013-3-22,62,56,52,44,38,33,73,52,37,29.75,29.55,14,3,24,0.00
2013-3-23,63,54,47,43,31,19,67,43,22,29.96,29.76,9,2,13,0.00
2013-3-24,62,57,49,52,47,38,84,69,61,30.00,29.92,12,4,18,0.00
2013-3-25,64,59,54,55,51,45,90,74,61,29.93,29.60,14,5,25,0.00
2013-3-26,65,59,55,54,49,46,90,70,55,29.66,29.52,11,2,12,0.00
2013-3-27,65,59,53,53,49,45,75,69,58,29.83,29.66,9,2,15,0.00
2013-3-28,64,58,54,54,51,47,91,78,68,30.05,29.83,6,1,12,0.07
2013-3-29,64,58,53,55,52,50,90,81,69,30.05,29.98,4,0,9,0.00
2013-3-30,71,64,57,55,51,46,86,65,45,29.98,29.81,14,2,23,0.00
2013-3-31,67,62,58,56,53,46,84,71,53,29.84,29.71,13,4,18,0.00
2013-4-1,71,62,55,55,46,38,89,59,32,29.88,29.76,12,2,18,0.00
2013-4-2,70,63,56,51,47,43,74,57,41,29.87,29.56,12,3,24,0.00
2013-4-3,68,62,57,57,49,42,90,64,40,29.67,29.44,12,2,17,0.00
2013-4-4,70,60,53,48,45,40,74,59,35,29.92,29.67,15,2,15,0.00
2013-4-5,70,62,56,51,46,31,74,57,24,29.94,29.78,17,4,29,0.00
2013-4-6,71,64,59,55,48,43,68,57,38,29.80,29.69,8,1,15,0.00
2013-4-7,69,64,59,57,51,43,90,64,42,29.68,29.30,17,5,38,0.01
2013-4-8,60,58,56,52,49,47,88,73,63,29.88,29.39,12,2,15,0.02
2013-4-9,64,58,52,50,48,47,82,71,55,29.98,29.87,11,1,11,0.00
2013-4-10,67,60,54,51,48,45,84,67,46,29.99,29.90,9,2,15,0.00
2013-4-11,71,62,54,53,48,44,77,60,42,30.01,29.90,9,2,14,0.00
2013-4-12,68,62,56,54,48,42,77,62,46,30.06,29.97,11,2,17,0.00
2013-4-13,72,65,59,52,47,43,64,54,41,30.09,30.04,9,2,14,0.00
2013-4-14,76,66,60,53,49,45,68,55,37,30.08,30.02,20,2,20,0.00
2013-4-15,64,59,55,47,44,39,70,59,43,30.08,29.99,10,4,23,0.00
2013-4-16,64,57,50,47,43,39,85,62,41,30.07,30.00,14,4,22,0.05
2013-4-17,66,59,53,41,35,26,63,43,24,30.08,30.03,22,5,26,0.00
2013-4-18,62,58,53,42,33,28,64,41,28,30.08,30.00,19,6,25,0.00
2013-4-19,62,56,51,45,38,34,72,52,40,30.01,29.93,16,4,21,0.00
2013-4-20,64,57,51,45,40,37,70,55,43,30.03,29.93,12,3,18,0.00
2013-4-21,70,61,54,48,41,38,66,49,32,30.03,29.93,10,2,18,0.00
2013-4-22,70,64,58,52,44,39,74,50,34,30.06,29.97,8,1,11,0.00
2013-4-23,70,63,56,53,47,41,71,56,44,30.21,30.06,7,1,12,0.00
2013-4-24,74,66,58,53,48,39,71,54,30,30.30,30.21,7,1,10,0.00
2013-4-25,78,71,62,53,47,41,63,42,33,30.27,30.15,8,2,10,0.00
2013-4-26,80,71,63,56,47,38,66,44,30,30.16,29.99,8,1,12,0.00
2013-4-27,78,71,64,50,44,38,53,38,30,29.99,29.89,12,3,19,0.00
2013-4-28,77,69,61,56,46,36,69,45,27,30.04,29.93,10,2,16,0.00
2013-4-29,79,70,63,56,46,38,66,44,33,30.10,30.03,7,1,10,0.00
2013-4-30,86,75,64,54,46,40,64,37,25,30.10,30.01,13,2,16,0.00
2013-5-1,85,77,70,52,48,41,47,36,28,30.04,29.93,10,3,21,0.00
2013-5-2,85,78,72,49,45,39,42,31,23,29.94,29.88,11,5,20,0.00
2013-5-3,83,74,67,60,52,45,68,47,33,29.91,29.82,9,1,12,0.00
2013-5-4,82,73,67,61,57,54,71,59,42,29.94,29.83,7,1,13,0.00
2013-5-5,84,76,69,62,55,50,64,50,36,30.03,29.92,7,1,11,0.00
2013-5-6,84,77,71,60,54,49,67,46,33,30.05,29.96,15,4,20,0.00
2013-5-7,81,75,68,58,53,50,71,47,35,29.96,29.84,12,3,15,0.00
2013-5-8,75,68,64,59,57,54,76,68,50,29.89,29.80,10,1,18,0.00
2013-5-9,71,66,63,60,55,53,75,68,59,29.88,29.81,16,3,19,0.02
2013-5-10,70,65,59,58,55,51,93,71,55,29.89,29.82,11,2,16,0.09
2013-5-11,75,68,61,58,55,51,77,64,51,29.87,29.74,12,2,21,0.00
2013-5-12,77,70,65,59,56,52,80,63,47,29.76,29.63,11,2,20,0.00
2013-5-13,73,67,63,56,52,50,68,59,47,29.68,29.62,8,2,15,0.00
2013-5-14,71,64,59,56,53,50,88,67,51,29.84,29.66,9,2,14,0.09
2013-5-15,75,68,61,57,53,50,76,61,45,29.87,29.81,13,3,18,0.00
2013-5-16,74,68,63,61,55,49,80,63,43,29.90,29.82,14,2,20,0.00
2013-5-17,78,71,64,61,56,50,77,61,45,29.92,29.81,11,2,19,0.00
2013-5-18,82,74,66,63,59,57,74,62,51,29.98,29.88,9,1,13,0.00
2013-5-19,86,78,70,64,58,54,68,53,37,29.96,29.87,12,2,16,0.00
2013-5-20,85,77,70,63,60,57,67,57,44,29.91,29.85,10,1,14,0.00
2013-5-21,84,77,71,64,58,52,71,53,33,29.92,29.83,9,2,14,0.00
2013-5-22,84,76,69,64,56,43,73,54,24,29.88,29.71,11,3,19,0.00
2013-5-23,82,76,68,63,54,40,73,48,25,29.70,29.55,19,5,28,0.00
2013-5-24,77,71,65,55,52,47,61,52,45,29.90,29.69,10,2,15,0.00
2013-5-25,77,70,64,58,52,49,66,54,39,29.94,29.87,9,2,15,0.00
2013-5-26,80,72,64,55,52,47,66,50,33,29.94,29.83,13,2,19,0.00
2013-5-27,76,70,64,50,45,40,53,42,28,29.96,29.89,11,2,16,0.00
2013-5-28,74,69,63,61,54,47,77,61,46,29.94,29.75,8,1,16,0.00
2013-5-29,82,75,68,62,54,41,65,49,31,29.74,29.56,13,3,21,0.00
2013-5-30,84,74,68,63,55,49,77,53,33,29.73,29.63,10,2,23,0.00
2013-5-31,80,73,67,58,50,42,66,47,32,29.79,29.64,9,2,14,0.00
2013-6-1,71,66,62,58,50,42,82,57,38,29.85,29.77,15,2,18,0.02
2013-6-2,75,68,61,57,53,47,83,60,41,29.82,29.65,12,2,18,0.03
2013-6-3,76,69,62,58,52,47,69,55,36,29.87,29.81,18,3,19,0.00
2013-6-4,78,71,64,58,54,50,78,56,38,29.88,29.80,16,3,21,0.00
2013-6-5,79,72,66,57,53,46,66,53,32,29.93,29.86,13,2,18,0.00
2013-6-6,81,72,66,62,56,52,73,58,43,30.00,29.91,10,2,16,0.00
2013-6-7,77,72,68,61,56,50,73,58,40,29.98,29.82,8,1,14,0.00
2013-6-8,82,74,68,61,58,52,72,56,41,29.84,29.77,9,1,12,0.00
2013-6-9,80,73,67,63,60,56,79,64,49,29.93,29.84,12,2,18,0.00
2013-6-10,82,76,69,62,58,55,66,55,44,29.93,29.80,15,3,21,0.00
2013-6-11,85,77,71,62,58,53,69,52,35,29.81,29.59,12,2,20,0.00
2013-6-12,79,72,64,61,56,51,81,57,44,29.75,29.64,10,2,16,0.10
2013-6-13,74,69,65,60,58,56,84,69,56,29.82,29.73,9,2,18,0.01
2013-6-14,77,71,65,63,59,57,78,66,52,29.91,29.81,13,2,15,0.02
2013-6-15,83,74,68,63,58,56,67,58,46,29.92,29.87,14,2,18,0.00
2013-6-16,88,78,70,68,62,56,78,58,41,29.94,29.89,9,2,16,0.00
2013-6-17,91,82,72,65,59,52,69,47,34,29.95,29.90,10,2,15,0.00
2013-6-18,89,84,78,61,58,54,51,43,33,29.95,29.89,16,5,28,0.00
2013-6-19,90,83,77,60,57,54,50,41,30,29.91,29.83,19,7,27,0.00
2013-6-20,91,84,80,60,55,52,51,38,30,29.93,29.82,20,8,29,0.00
2013-6-21,86,81,76,60,57,52,52,44,37,29.92,29.86,16,7,23,0.00
2013-6-22,91,83,74,55,51,42,52,34,18,29.90,29.81,18,4,21,0.00
2013-6-23,92,84,77,65,57,47,63,41,31,29.83,29.75,9,2,16,0.00
2013-6-24,92,84,76,65,59,43,62,44,24,29.78,29.72,13,2,18,0.00
2013-6-25,80,78,76,61,60,57,58,54,50,29.75,29.71,3,0,6,0.00